TimeMDT,TemperatureF,Dew PointF,Humidity,Sea Level PressureIn,VisibilityMPH,Wind Direction,Wind SpeedMPH,Gust SpeedMPH,PrecipitationIn,Events,Conditions,WindDirDegrees,DateUTC
12:53 AM,41.0,17.1,38,29.62,10.0,SE,11.5,-,N/A,,Clear,140,2012-10-23 06:53:00
1:53 AM,41.0,18.0,40,29.59,10.0,SSE,10.4,18.4,N/A,,Clear,150,2012-10-23 07:53:00
2:53 AM,42.1,17.1,37,29.57,10.0,Variable,6.9,21.9,N/A,,Clear,0,2012-10-23 08:53:00
3:53 AM,43.0,16.0,34,29.53,10.0,SSW,13.8,28.8,N/A,,Clear,200,2012-10-23 09:53:00
4:53 AM,44.1,18.0,35,29.54,10.0,SSW,18.4,26.5,N/A,,Clear,210,2012-10-23 10:53:00
5:53 AM,43.0,19.0,38,29.60,10.0,SSW,11.5,19.6,N/A,,Mostly Cloudy,200,2012-10-23 11:53:00
6:53 AM,41.0,26.1,55,29.63,10.0,SSE,4.6,16.1,N/A,,Overcast,160,2012-10-23 12:53:00
7:53 AM,39.9,28.9,65,29.69,10.0,Variable,4.6,-,0.00,,Overcast,0,2012-10-23 13:53:00
8:13 AM,35.6,32.0,87,30.05,8.0,NW,9.2,-,0.00,Rain,Light Rain,310,2012-10-23 14:13:00
8:42 AM,35.6,32.0,87,30.04,10.0,Variable,3.5,-,0.01,,Overcast,0,2012-10-23 14:42:00
8:53 AM,37.9,30.0,73,29.70,10.0,SSW,5.8,-,0.01,,Mostly Cloudy,200,2012-10-23 14:53:00
9:53 AM,45.0,17.1,33,29.65,10.0,SW,16.1,31.1,N/A,,Clear,220,2012-10-23 15:53:00
10:53 AM,48.0,10.0,22,29.62,10.0,SSW,26.5,46.0,N/A,,Clear,210,2012-10-23 16:53:00
11:53 AM,48.9,9.0,20,29.61,10.0,SW,18.4,28.8,N/A,,Clear,220,2012-10-23 17:53:00
12:53 PM,51.1,5.0,15,29.60,10.0,SW,13.8,23.0,N/A,,Clear,220,2012-10-23 18:53:00
1:53 PM,48.9,1.9,15,29.60,10.0,SW,20.7,29.9,N/A,,Clear,220,2012-10-23 19:53:00
2:53 PM,51.1,1.9,13,29.57,10.0,WSW,11.5,27.6,N/A,,Clear,240,2012-10-23 20:53:00
3:53 PM,50.0,3.0,15,29.57,10.0,SSW,17.3,35.7,N/A,,Clear,210,2012-10-23 21:53:00
4:53 PM,52.0,3.9,14,29.57,10.0,WSW,17.3,21.9,N/A,,Clear,240,2012-10-23 22:53:00
5:53 PM,48.0,5.0,17,29.60,10.0,SW,9.2,16.1,N/A,,Clear,230,2012-10-23 23:53:00
6:53 PM,45.0,7.0,21,29.67,10.0,SW,6.9,-,N/A,,Clear,220,2012-10-24 00:53:00
7:53 PM,44.1,10.0,25,29.69,10.0,SSW,4.6,-,N/A,,Clear,200,2012-10-24 01:53:00
8:53 PM,43.0,12.0,28,29.71,10.0,South,12.7,-,N/A,,Clear,170,2012-10-24 02:53:00
9:53 PM,41.0,12.9,32,29.69,10.0,South,6.9,-,N/A,,Clear,170,2012-10-24 03:53:00
10:53 PM,39.0,15.1,38,29.67,10.0,SSE,3.5,-,N/A,,Clear,160,2012-10-24 04:53:00
11:53 PM,39.0,17.1,41,29.67,10.0,Calm,Calm,-,N/A,,Clear,0,2012-10-24 05:53:00